RH
7 6 6 6 6 6 5 5 5 4 4 4 4 4 4 3 3 3 3 3 3 3 4 4 4 4 5 5 6 6 6 7 6 6 4 2 2 2 3 3 3 3 2 2 1 1 2 2 3 7 18 28 34 34 31 34 44 58 64 66 74 78 75 87 94 91 91 78 72 70 69 74 51 50 64 52 52 44 50 75 53 32 29 17 19 26 28 29
7 7 7 7 6 6 5 5 5 4 4 4 4 4 3 3 3 3 3 3 3 3 3 3 4 4 4 5 5 6 6 6 7 7 5 4 3 2 2 2 3 3 3 2 1 2 1 3 2 5 16 26 35 33 29 42 58 66 70 68 74 81 76 88 98 85 73 63 66 68 65 71 51 48 55 48 58 46 45 63 48 40 32 15 19 24 28 30
7 7 7 7 7 6 6 5 5 4 4 4 4 4 3 3 3 3 3 3 3 3 3 3 3 4 4 5 5 5 6 6 7 9 8 6 4 2 2 2 2 2 3 3 3 2 2 3 2 5 14 25 35 33 30 46 66 72 73 72 77 84 80 89 97 86 75 62 61 60 58 62 49 50 50 45 55 41 37 46 43 42 26 15 20 22 28 29
7 7 7 7 7 6 6 5 5 4 4 4 4 3 3 3 3 3 3 3 3 3 3 3 3 3 4 4 5 5 5 6 8 10 9 8 6 4 2 2 2 2 3 3 3 2 3 3 3 5 12 25 34 34 32 43 68 79 71 68 79 86 81 88 96 90 83 68 61 59 57 58 54 49 42 44 43 31 37 44 45 39 19 19 25 23 26 27
8 8 7 8 7 6 6 5 5 4 4 4 3 3 3 3 3 3 3 3 3 3 3 3 3 3 3 4 4 4 5 6 9 9 9 10 8 5 3 3 2 2 2 3 3 3 3 3 3 5 11 26 34 35 34 40 63 79 73 66 75 85 83 88 94 91 87 73 65 67 64 60 60 54 46 45 34 30 41 50 54 34 14 22 29 29 26 25
9 8 8 8 8 7 6 5 4 4 4 4 3 3 3 3 3 3 3 3 3 3 3 3 3 2 3 3 3 4 4 5 9 11 11 11 11 8 5 3 2 2 2 2 3 2 3 3 3 5 13 25 33 35 39 45 55 66 74 74 72 76 77 80 85 87 90 82 73 73 68 56 54 55 57 48 27 30 41 47 50 27 13 21 27 32 26 24
9 9 9 8 8 7 6 6 5 4 4 4 4 3 3 3 3 3 3 3 3 3 3 3 3 3 3 3 3 3 3 5 9 13 13 12 12 11 7 4 3 2 2 3 3 3 3 3 4 6 12 26 34 36 40 47 53 58 65 73 71 68 69 70 75 84 91 90 82 76 68 57 54 51 55 48 27 32 44 44 36 19 16 19 25 33 26 24
10 9 9 9 8 8 7 6 5 5 4 4 4 3 3 3 3 3 3 3 3 3 3 3 3 3 3 3 3 2 4 6 9 12 14 13 13 14 10 6 4 2 2 2 2 3 3 3 5 6 10 21 28 31 37 40 50 61 64 69 70 68 69 62 61 70 79 87 87 82 71 62 64 53 48 50 44 43 44 43 29 16 20 21 28 35 26 24
10 10 10 9 9 8 7 6 5 5 4 4 4 3 3 3 3 3 3 3 3 3 3 3 3 3 3 3 3 3 6 6 6 10 15 15 15 15 14 9 5 3 3 2 3 2 3 3 4 6 10 17 23 30 39 43 57 78 81 75 70 68 62 52 58 66 74 86 86 84 76 68 70 60 48 50 58 59 46 39 29 20 24 28 35 33 23 22
11 11 11 10 9 8 7 6 5 5 4 4 4 3 3 3 3 3 3 4 4 4 4 5 5 5 5 5 4 6 8 5 5 12 16 16 16 16 16 12 7 4 3 2 3 2 3 4 3 6 9 20 31 35 41 51 67 86 86 72 65 63 50 49 73 81 85 94 89 87 80 75 77 67 60 56 58 67 59 42 28 23 26 32 39 31 21 22
12 12 11 10 10 8 7 6 5 5 4 4 4 3 3 3 4 4 4 5 6 7 7 8 9 8 8 7 7 9 9 7 6 11 16 18 18 18 17 16 10 5 4 3 2 3 3 3 4 6 9 23 36 38 46 56 68 83 83 66 55 57 50 52 73 78 84 94 91 91 82 78 80 68 66 67 63 72 74 54 29 21 25 33 38 28 21 22
12 12 12 11 10 8 7 6 5 5 4 4 3 4 4 4 5 5 6 8 9 10 10 11 10 10 10 8 9 10 10 9 8 10 16 18 19 20 19 18 13 7 4 3 3 3 3 3 3 5 10 21 23 27 44 57 69 83 79 64 56 57 53 52 64 69 78 86 86 90 84 79 83 74 69 70 70 75 74 57 32 18 25 35 33 28 22 20
13 13 12 11 10 8 7 5 5 4 4 4 4 4 5 5 6 7 8 9 10 10 11 11 10 10 9 10 11 11 11 11 9 9 15 19 19 20 22 20 16 10 5 4 3 2 3 3 3 4 10 24 23 20 39 57 73 83 73 60 56 54 49 53 66 73 81 84 83 89 88 83 84 80 73 73 75 70 59 49 34 20 26 35 32 36 33 18
14 14 12 11 10 8 6 5 5 4 4 4 4 5 6 6 6 7 8 9 9 10 11 11 10 10 10 12 13 12 13 13 11 11 15 19 19 20 22 23 19 12 7 4 4 3 3 2 3 3 10 33 41 34 50 71 76 77 69 54 50 55 55 65 81 83 89 91 86 92 95 89 89 83 75 77 75 59 43 38 36 24 23 34 33 42 42 19
15 14 13 12 10 8 6 5 4 4 4 4 5 6 6 6 7 7 7 7 8 8 9 9 9 10 11 12 13 14 15 14 14 14 16 18 19 20 21 25 22 15 9 5 4 3 3 3 2 5 13 29 45 47 58 76 75 67 66 56 51 61 61 71 90 89 92 95 92 97 98 93 93 89 79 75 64 44 31 32 39 28 17 30 37 45 47 25
16 15 13 11 9 8 6 5 4 4 4 5 6 6 6 8 7 7 7 6 6 5 5 5 6 7 9 10 12 14 15 16 17 17 17 18 19 19 20 25 24 18 11 5 5 4 3 4 1 6 12 21 42 55 57 69 76 66 68 71 61 63 65 71 89 93 93 97 96 96 96 93 92 93 83 66 51 33 23 31 43 35 17 22 36 45 49 33
17 15 13 11 9 7 6 5 4 3 4 5 6 7 8 8 6 5 5 5 4 3 3 4 4 4 4 6 7 10 13 15 17 18 18 17 19 19 19 24 26 21 14 7 6 5 4 4 4 7 11 22 44 59 58 65 76 67 66 77 72 68 73 79 89 91 92 95 95 93 95 96 96 98 84 57 43 29 22 33 44 39 23 18 29 39 44 38
17 15 13 11 9 7 6 5 4 4 5 5 7 9 8 6 5 5 4 4 4 3 3 4 4 4 3 4 4 6 9 13 16 18 18 17 18 18 17 22 27 23 16 10 6 5 5 3 4 8 12 28 49 64 68 65 70 71 66 74 78 76 78 86 91 87 89 93 94 95 96 97 100 100 81 53 40 25 20 34 43 42 29 18 24 32 36 37
17 15 13 10 8 7 6 5 4 5 5 7 9 9 7 5 4 4 3 3 3 2 4 6 7 5 4 3 3 4 6 10 14 17 18 16 16 16 15 19 26 26 19 13 8 5 6 4 4 7 10 22 45 72 82 70 70 79 79 78 80 83 82 87 94 91 91 95 95 97 97 98 101 97 78 57 39 20 16 30 44 48 36 20 21 29 33 35
17 14 12 10 8 6 6 5 6 6 7 8 9 8 6 5 4 4 4 3 4 5 7 9 7 5 5 5 4 4 5 8 11 14 16 15 14 14 13 16 23 26 22 14 10 7 6 6 3 4 9 19 47 84 90 77 76 80 83 84 81 88 89 86 96 97 92 95 96 98 100 98 101 97 80 62 38 15 11 24 43 54 42 23 16 24 33 34
17 14 11 9 7 6 6 6 7 8 9 9 9 8 6 5 4 4 4 7 12 13 10 6 5 5 7 8 6 5 4 6 9 11 13 13 12 11 9 13 21 25 23 17 11 8 6 6 5 3 10 26 60 95 95 80 81 84 86 88 88 94 92 88 95 97 91 94 95 97 100 97 100 95 76 62 42 16 10 22 43 56 48 30 15 17 29 32
18 14 11 8 6 6 6 7 9 10 10 10 8 7 5 4 5 5 8 18 24 17 6 2 4 8 9 10 8 6 5 5 7 9 11 11 10 10 8 9 18 23 23 19 12 9 7 5 6 5 11 36 70 95 99 87 81 90 93 88 90 93 89 90 95 96 94 95 95 98 100 96 97 90 72 66 47 18 11 22 41 56 55 40 20 13 21 28
18 14 10 8 6 5 6 7 10 12 12 10 7 6 5 4 5 6 13 29 29 12 4 5 7 13 16 13 10 5 4 4 6 7 8 10 9 8 9 8 16 23 22 20 13 9 8 6 6 6 11 41 78 94 101 94 80 91 101 90 86 84 85 91 93 95 97 97 97 98 100 97 95 91 80 75 53 20 11 18 32 50 58 52 32 15 15 23
18 14 10 8 6 5 6 7 10 13 12 10 7 6 5 4 7 10 19 37 32 10 7 11 10 14 15 13 12 6 4 4 6 7 6 7 8 6 6 7 12 21 23 22 17 10 8 8 8 9 12 37 78 97 100 96 83 88 97 88 82 80 82 87 90 96 98 98 100 98 100 97 90 89 86 82 60 24 13 19 29 44 54 55 41 22 15 18
18 13 10 8 6 5 5 7 11 13 13 10 6 5 5 4 9 17 27 38 28 10 9 11 8 8 8 14 16 5 3 6 6 9 8 5 6 6 5 6 11 21 24 20 18 13 9 10 9 11 15 29 69 97 97 95 86 85 94 91 86 84 81 82 85 93 97 98 101 99 98 94 87 87 86 83 69 39 25 28 34 41 47 52 47 32 18 16
17 13 9 8 6 5 6 7 11 14 13 9 5 5 4 6 16 28 40 38 19 9 16 18 13 7 7 16 16 11 23 32 20 11 8 5 4 7 8 6 11 23 30 34 33 20 11 12 9 17 23 28 66 95 90 89 84 83 98 99 93 88 82 83 85 87 94 98 100 100 97 96 95 94 87 78 71 62 52 42 38 38 38 46 50 39 23 19
18 13 9 8 6 5 6 7 11 13 12 9 6 6 3 10 25 35 48 43 20 20 30 28 21 11 11 19 17 23 48 58 38 15 8 7 3 9 13 10 20 34 35 42 45 25 14 12 8 26 38 38 72 95 79 80 87 89 99 99 94 90 81 85 89 87 95 98 98 99 96 97 99 98 94 75 60 69 72 59 51 42 33 39 47 44 33 29
19 13 9 9 6 6 6 6 11 13 13 10 6 7 1 12 33 41 51 42 22 31 34 21 22 19 16 24 21 25 48 63 52 27 11 8 5 8 12 9 27 49 41 35 40 30 19 12 9 25 37 37 67 92 81 79 88 91 98 95 93 93 84 83 88 90 98 99 98 100 97 98 100 99 99 81 60 64 72 69 66 56 41 36 41 46 42 36
20 12 10 9 6 8 6 6 12 13 14 9 5 7 2 14 38 45 45 32 21 39 40 24 28 31 27 34 38 43 58 66 60 40 16 8 8 8 16 15 18 35 39 32 35 34 26 23 27 32 41 53 71 85 83 80 87 91 94 95 95 95 87 83 87 93 100 100 99 100 98 99 100 98 100 93 76 66 62 64 70 72 61 44 41 46 43 40
21 13 11 9 7 8 6 7 11 13 15 8 5 7 1 18 46 46 37 32 32 43 47 40 40 47 51 48 54 68 74 62 51 51 35 13 8 11 21 26 18 20 32 35 34 35 30 27 27 26 50 81 79 71 71 72 86 94 89 89 91 89 85 84 89 92 94 97 98 98 99 100 101 99 98 98 93 82 72 65 67 75 70 52 45 43 39 41
24 15 11 9 8 8 6 8 10 14 16 8 7 5 3 30 54 44 34 42 50 47 48 55 46 48 62 60 62 73 80 72 60 67 61 24 6 11 15 21 25 27 33 40 37 31 31 36 23 13 47 81 71 68 78 75 83 91 87 86 82 82 86 87 92 91 86 92 97 98 97 96 98 97 94 96 97 94 83 70 67 74 71 59 52 47 43 42
28 17 12 9 9 8 7 8 9 15 15 9 9 3 7 41 53 41 44 56 59 46 47 61 46 33 50 68 74 67 69 83 74 70 70 43 19 11 11 24 42 57 61 54 43 31 36 51 38 21 43 62 57 70 87 82 83 90 95 93 79 76 82 84 93 92 84 89 97 99 96 94 98 97 92 91 93 93 88 77 73 74 71 68 68 64 58 51
32 20 14 10 9 9 7 8 9 14 16 10 11 2 7 40 46 40 58 65 49 30 31 49 46 37 51 72 77 63 65 84 78 65 69 76 69 40 30 40 51 80 95 74 59 53 48 53 49 38 38 37 41 61 76 82 93 95 98 99 86 77 74 77 89 89 84 92 98 98 98 96 97 95 91 90 88 87 87 86 84 79 72 73 78 76 72 64
36 24 16 10 10 9 7 9 9 13 17 11 10 5 8 40 46 30 35 36 23 14 12 30 49 58 70 79 74 61 65 78 75 69 68 79 87 67 58 62 57 78 98 81 77 80 63 56 58 52 40 29 32 43 51 71 93 91 89 98 97 86 75 77 86 84 83 92 94 95 98 98 97 95 92 89 85 83 80 81 86 86 79 75 77 78 77 76
42 30 19 11 10 11 8 9 9 12 16 12 10 5 9 41 48 23 13 9 8 7 1 20 54 74 80 80 71 61 65 70 64 66 73 76 83 83 85 88 76 74 80 78 85 87 74 68 64 57 48 38 35 32 33 59 84 82 76 87 98 96 89 88 88 86 88 88 86 89 92 95 98 97 92 87 84 85 82 78 80 84 85 81 80 80 80 84
47 34 21 12 11 13 9 8 9 10 14 14 12 7 17 40 35 14 8 4 5 4 1 26 61 79 81 74 69 67 70 68 52 51 70 76 77 83 88 92 87 75 72 80 88 86 77 68 60 58 56 48 40 33 40 67 87 82 66 65 79 86 90 95 92 88 91 87 84 90 89 91 97 97 95 91 87 85 84 82 80 80 84 85 86 89 89 91
49 37 23 14 13 14 11 9 9 10 14 16 12 11 25 35 19 7 7 3 6 3 3 31 56 69 80 75 73 80 82 75 59 55 65 64 65 77 83 89 88 74 66 71 80 83 74 65 65 68 66 62 50 40 56 74 78 79 71 61 67 74 80 90 91 89 91 87 85 92 91 89 93 95 94 93 90 86 84 83 82 79 78 80 82 85 86 87
51 41 26 17 15 14 11 10 9 10 14 17 16 20 33 36 20 9 7 3 6 3 5 22 35 52 71 71 73 86 92 80 63 61 64 59 64 77 86 92 83 64 55 60 77 84 70 66 77 76 73 76 61 46 54 55 52 75 93 85 80 80 78 80 86 93 94 87 80 81 85 86 88 91 91 91 88 82 80 82 82 81 79 77 76 76 76 75
52 44 31 21 17 13 12 12 10 11 15 17 19 25 38 47 31 10 4 6 5 3 7 9 18 41 56 59 69 81 85 73 56 59 67 69 73 75 81 89 78 63 56 62 81 84 69 74 84 77 80 88 73 55 49 35 31 58 83 86 86 89 82 70 74 90 93 88 81 77 83 88 85 83 86 89 86 81 82 85 85 84 80 76 72 71 73 73
54 46 35 25 20 16 13 12 12 13 13 15 19 21 30 44 37 11 2 8 4 4 8 2 13 33 37 42 56 62 68 67 62 64 66 75 85 80 78 81 76 69 56 52 71 78 73 84 87 80 86 93 81 69 60 39 29 41 55 68 79 87 87 74 72 88 93 91 89 83 84 87 83 80 78 78 80 82 85 86 84 79 74 71 67 62 65 69
56 50 39 29 26 22 15 13 14 13 15 16 17 21 29 44 48 25 6 6 4 6 7 3 10 19 18 27 36 43 59 66 68 71 68 71 77 70 67 69 71 74 62 55 71 80 80 81 79 83 90 93 88 82 73 50 34 33 36 47 63 74 84 84 83 94 99 96 92 86 86 86 82 83 80 75 79 86 90 89 84 79 71 64 58 55 64 74
57 55 46 35 32 28 19 16 14 13 18 17 22 41 50 46 42 25 8 7 7 4 6 10 15 13 12 21 25 32 47 52 55 62 68 79 81 69 67 68 70 74 71 67 66 68 74 69 69 82 80 76 83 84 74 55 43 43 37 40 59 73 80 82 84 91 95 94 92 88 88 86 82 85 84 80 81 82 85 85 83 84 76 63 56 56 67 77
60 59 54 42 35 30 22 17 15 17 20 17 34 69 64 36 28 21 9 9 9 4 6 11 14 10 9 14 20 25 31 41 57 60 61 76 79 67 64 65 66 66 66 65 53 52 70 71 69 78 66 58 69 72 68 57 50 58 56 44 52 73 82 80 82 89 87 85 88 89 91 90 85 84 81 78 77 72 73 79 80 82 77 72 73 69 65 65
61 61 59 49 40 35 25 18 16 20 26 31 58 90 74 38 32 30 14 9 9 6 5 6 7 8 8 6 14 21 22 36 55 53 52 67 68 58 57 59 60 56 53 54 47 49 66 71 71 76 66 62 70 70 73 71 59 63 70 54 46 66 82 78 80 88 84 81 80 80 88 93 88 82 76 77 79 73 74 80 83 82 77 83 89 74 58 56
59 60 59 52 46 40 30 23 18 18 27 37 57 80 74 45 31 27 16 9 8 6 6 7 5 7 8 4 8 18 24 35 41 37 45 60 52 40 43 49 52 50 47 49 48 48 54 59 68 75 71 68 74 77 81 82 69 61 66 64 54 60 72 73 77 84 84 82 77 72 79 87 86 78 72 74 76 73 75 78 81 86 83 86 92 75 54 50
59 62 60 53 48 46 39 29 21 21 26 32 45 68 75 53 26 19 18 12 8 6 6 7 6 6 8 7 9 15 23 32 34 34 40 44 39 33 36 42 45 43 45 49 50 47 46 47 55 68 72 66 65 76 81 78 70 58 54 61 63 59 63 71 76 80 83 80 73 70 74 79 84 80 72 72 72 74 83 83 81 89 89 83 84 78 64 55
63 63 58 53 50 49 45 35 27 29 28 30 47 70 76 62 38 29 28 20 12 8 5 6 8 8 7 6 8 12 18 19 18 20 21 24 36 40 34 39 43 40 41 47 51 50 45 41 43 56 72 71 63 73 84 77 66 58 56 62 61 56 57 61 64 71 78 74 68 72 71 69 77 82 78 77 76 76 81 81 79 83 83 78 75 74 72 67
65 63 57 57 56 51 45 42 42 42 37 38 51 63 70 72 66 62 56 36 16 8 7 8 8 7 8 9 9 10 12 11 11 13 10 12 28 32 28 37 46 39 35 38 45 49 45 40 40 46 66 80 74 74 84 78 61 60 72 70 55 48 52 55 54 59 68 70 68 72 72 67 69 75 77 79 80 78 73 72 75 75 73 77 80 77 75 75
62 62 61 64 64 55 46 48 51 47 46 53 57 56 66 80 84 82 75 58 36 18 7 8 10 8 7 9 9 10 10 9 11 13 7 5 16 23 28 40 42 37 40 41 39 39 39 38 35 37 56 79 78 73 81 80 63 59 69 63 48 47 53 55 55 54 58 66 68 67 68 65 61 63 69 69 71 73 70 66 69 70 69 74 78 77 74 77
61 68 71 69 67 60 52 52 48 40 46 58 57 51 58 73 81 82 84 84 73 45 15 7 10 8 7 8 9 10 10 9 11 12 8 5 8 17 31 43 42 40 46 48 42 39 44 44 34 31 46 66 75 76 81 82 71 61 56 48 44 50 54 56 59 56 55 63 67 65 62 57 51 52 57 60 61 63 64 65 65 64 65 66 68 70 69 74
70 80 79 71 69 64 58 53 42 37 44 52 58 63 64 65 65 68 81 91 86 63 31 12 9 8 7 9 9 9 10 9 10 11 8 5 7 18 34 42 42 41 44 50 50 48 53 53 43 35 36 45 60 74 80 82 78 65 52 45 46 52 56 57 56 56 57 57 59 60 57 51 45 42 42 48 54 55 59 65 63 59 59 60 63 63 60 63
78 86 83 79 75 67 63 56 41 42 49 49 58 76 85 82 70 65 77 81 75 65 39 13 9 11 8 8 9 11 13 11 10 12 8 4 10 25 38 40 38 39 42 46 50 50 53 55 51 43 36 35 43 53 63 75 80 72 60 52 49 52 59 57 52 55 56 50 47 50 49 46 44 42 40 42 45 51 58 59 56 54 53 50 53 57 55 56
Wind_Speed
25 24 24 23 22 21 20 19 19 18 17 16 15 15 15 15 14 14 14 14 15 16 17 18 19 21 22 22 22 23 23 24 24 24 23 22 22 23 23 24 23 21 20 19 17 15 14 14 12 13 16 16 15 13 12 10 8 6 6 5 3 4 7 6 3 10 16 15 12 10 10 9 7 7 8 7 5 3 6 4 2 3 2 4 9 11 12 11
25 25 25 24 23 22 22 21 20 19 18 18 17 17 16 15 15 15 15 15 16 17 18 19 20 21 22 24 24 24 24 25 25 26 25 23 24 24 25 26 25 23 22 20 18 16 16 15 13 13 16 17 15 14 13 10 9 7 6 6 4 2 3 4 4 13 14 12 12 11 10 10 7 8 9 7 6 3 4 4 2 3 3 4 8 11 12 12
25 25 25 25 24 24 23 22 21 20 19 19 19 18 18 17 16 16 16 16 16 17 18 20 21 22 23 24 25 26 26 26 26 26 26 26 26 25 26 27 27 25 22 21 20 18 17 16 15 14 16 17 17 16 15 12 9 8 7 6 5 2 0 0 5 11 11 10 10 10 9 9 7 8 9 8 7 5 5 5 4 4 4 5 7 11 12 11
25 25 25 25 25 24 24 23 22 21 21 20 20 20 20 19 19 18 18 18 18 18 19 20 22 23 24 25 27 27 28 28 26 26 28 28 28 27 27 28 28 27 24 23 22 20 18 17 15 15 17 17 18 18 17 15 11 8 10 9 5 3 2 4 6 8 10 9 8 8 8 8 8 7 9 8 7 6 5 5 5 5 6 5 7 10 12 11
25 26 25 25 25 24 24 23 22 22 21 21 21 21 21 21 21 21 21 20 20 20 20 21 22 24 25 26 28 29 30 29 25 27 29 28 29 28 27 28 29 28 25 24 23 22 19 18 16 16 18 18 19 19 17 17 13 8 9 9 6 4 3 6 7 7 9 9 8 8 8 10 9 8 9 9 8 7 6 5 5 6 6 6 7 10 11 10
26 26 26 26 25 25 24 23 23 22 22 22 22 22 22 23 23 23 23 23 23 22 22 22 23 24 26 27 29 30 32 30 25 27 29 28 29 29 29 29 30 29 26 26 25 24 21 19 18 17 19 20 21 20 18 19 17 11 8 8 8 8 7 7 8 8 11 11 10 9 10 11 11 9 9 9 9 8 7 6 6 6 6 6 7 10 11 11
27 27 27 26 26 25 24 24 23 23 23 23 23 23 24 24 24 24 24 25 25 24 23 23 23 24 26 28 30 31 33 30 25 25 29 29 30 30 31 30 31 30 28 28 27 25 23 20 19 19 20 22 22 21 21 21 16 12 10 9 10 11 10 7 7 10 13 15 14 13 12 12 11 11 9 9 10 8 7 7 7 7 6 6 8 10 11 11
28 28 27 27 26 25 25 24 24 24 24 24 24 25 25 25 26 25 25 25 25 25 24 24 24 24 26 27 30 32 32 29 25 27 30 32 31 31 32 32 32 31 30 29 28 27 25 22 21 21 22 23 23 23 22 19 14 12 11 11 12 13 11 9 11 12 14 18 18 15 14 14 13 12 11 11 11 9 8 8 8 7 7 7 8 9 11 12
28 28 28 28 27 26 25 25 25 25 25 25 26 26 26 26 26 26 26 26 25 25 24 24 23 23 25 26 28 29 29 29 28 28 31 34 33 32 33 33 32 32 32 31 30 28 26 24 24 23 22 22 22 23 21 17 15 12 10 12 15 14 13 12 13 12 13 18 19 16 15 15 14 13 11 11 11 10 10 10 9 8 7 7 8 9 11 13
28 28 28 28 27 26 26 25 25 25 25 26 26 26 26 26 26 26 26 25 25 24 23 22 22 22 23 24 25 23 25 29 29 28 31 34 34 33 34 34 34 33 33 32 31 29 27 27 26 24 23 22 21 22 22 18 17 14 10 13 15 13 14 14 11 10 12 17 19 17 16 15 14 13 12 11 11 11 10 11 10 9 8 8 8 8 10 12
28 28 28 27 27 26 26 26 26 26 25 26 26 26 26 26 25 25 25 24 23 22 22 21 20 21 21 22 21 19 23 27 27 28 31 33 33 33 34 35 35 34 34 33 32 30 29 28 27 25 24 23 23 23 22 18 17 15 12 15 16 13 14 14 10 10 14 18 19 18 16 16 16 16 15 13 13 12 11 12 12 10 9 9 9 8 9 11
28 28 28 27 27 26 26 26 26 26 25 25 25 25 25 24 24 24 23 22 21 21 20 20 20 20 20 20 19 18 22 22 22 26 29 32 33 33 34 35 35 35 34 34 33 32 31 29 27 26 24 25 26 24 23 20 17 14 15 17 17 15 14 13 11 12 16 18 18 18 17 17 17 17 16 15 15 14 12 13 12 12 10 10 9 9 9 10
28 28 27 27 26 26 26 26 26 25 25 25 24 24 24 23 23 22 21 21 21 20 20 19 19 19 19 19 19 19 20 18 19 24 27 30 32 33 34 35 36 35 35 35 34 34 32 31 29 27 25 24 24 22 23 22 18 15 16 18 18 16 13 13 13 14 18 18 17 19 18 18 18 17 17 17 16 15 13 13 13 13 12 10 10 9 8 9
28 28 27 27 26 26 25 26 25 25 24 24 23 23 22 22 22 21 21 20 20 20 20 19 19 19 18 18 19 19 19 18 19 22 24 28 31 32 34 35 36 36 35 35 35 34 33 31 29 27 25 24 22 22 22 20 19 17 16 17 17 14 11 11 12 15 18 19 19 19 18 18 18 18 19 18 17 15 14 14 14 14 13 11 11 10 8 8
28 28 27 27 26 25 25 25 25 24 23 22 21 21 21 21 20 20 19 18 18 18 18 19 19 19 19 19 20 20 20 19 19 21 23 26 29 32 34 35 36 35 35 35 35 34 32 30 29 27 26 26 24 25 23 17 17 18 16 17 17 12 11 10 11 14 17 20 20 20 20 20 19 19 19 18 17 16 15 16 16 15 14 13 12 11 9 8
28 27 26 26 25 25 25 24 24 23 22 21 20 20 20 19 18 17 17 16 16 16 17 17 17 17 18 18 19 19 20 19 18 21 22 24 28 32 34 35 36 35 34 35 34 33 30 29 29 28 27 28 27 27 26 19 17 18 17 18 16 12 11 10 11 14 16 20 21 21 21 20 21 22 19 17 17 16 16 17 17 16 15 14 13 12 10 9
27 26 26 25 25 24 24 24 24 22 21 20 19 18 17 17 16 16 16 16 16 16 16 17 16 17 18 17 17 17 18 19 18 20 22 23 26 30 33 35 36 34 33 34 33 32 31 30 29 28 28 28 28 28 27 22 19 19 20 19 15 13 12 10 12 15 16 20 22 22 23 22 23 24 21 19 17 16 18 18 18 16 15 15 15 13 11 11
26 25 25 24 24 23 23 23 23 21 20 18 17 16 15 15 16 16 17 18 18 18 17 17 17 18 18 16 15 16 17 18 18 19 21 22 24 28 32 35 35 34 33 32 33 32 31 31 30 29 30 28 28 27 25 23 19 19 21 20 16 15 14 10 13 16 16 19 21 22 25 24 25 26 23 21 18 16 18 19 18 17 16 16 15 14 13 12
25 24 24 23 23 23 22 22 21 20 19 17 16 14 14 15 16 17 18 19 19 18 16 16 17 18 17 15 14 15 16 17 17 18 20 20 22 26 30 34 35 33 32 31 31 31 31 32 32 32 31 30 29 25 24 23 19 18 20 19 18 15 14 11 12 16 17 18 19 22 25 25 26 26 23 21 18 17 19 20 20 19 18 17 16 15 14 13
24 24 23 22 22 22 21 21 21 19 18 16 14 14 14 14 15 17 18 19 19 18 17 16 16 17 17 15 12 13 14 15 16 17 18 19 20 24 29 32 34 33 31 30 30 31 32 32 32 31 30 28 27 23 23 23 19 19 20 19 18 15 14 13 12 16 18 19 20 23 27 27 27 26 23 20 18 18 19 20 21 20 19 18 17 16 15 14
24 23 22 21 21 20 20 21 20 19 17 15 14 14 14 14 16 17 17 18 15 14 17 16 14 14 12 13 13 11 12 13 14 15 16 17 19 23 27 30 33 32 30 29 30 32 32 32 31 30 29 28 27 23 21 23 21 19 19 20 18 15 16 16 14 16 18 18 19 22 27 28 27 26 24 21 19 17 19 21 22 21 21 19 18 17 15 15
23 22 21 20 20 20 19 20 19 18 16 14 14 14 14 15 17 17 17 15 11 13 17 14 14 13 9 12 14 12 10 10 12 13 14 16 18 22 26 29 30 30 29 29 30 32 31 31 30 28 28 27 27 24 19 20 23 19 18 22 20 16 17 16 13 15 19 20 20 21 25 25 25 25 24 22 21 20 21 24 24 24 22 20 19 18 16 15
23 22 20 20 19 19 19 19 19 17 16 14 13 14 15 16 17 18 16 11 11 18 18 17 18 16 14 16 16 12 9 7 9 11 13 15 17 21 24 27 29 28 28 28 29 31 30 29 29 27 29 29 26 25 17 16 22 21 17 22 22 18 18 17 13 14 18 23 23 23 25 25 26 27 24 22 21 21 21 23 25 25 24 22 20 19 17 16
23 21 20 19 18 18 19 19 18 17 15 13 13 14 15 16 17 18 16 10 11 17 18 19 18 15 13 16 16 13 8 5 8 9 11 13 15 18 22 25 28 27 26 27 27 29 28 26 25 25 28 29 28 27 21 18 25 23 17 19 21 21 20 19 15 12 16 22 25 27 28 28 29 28 24 23 22 21 21 22 24 25 25 24 23 21 19 18
22 20 19 18 18 18 18 18 18 16 15 13 13 14 14 16 17 17 16 13 15 18 18 18 18 16 15 15 17 15 8 3 5 7 10 12 13 17 21 23 26 26 25 25 25 26 26 26 25 24 27 28 29 27 19 20 28 25 17 16 18 20 21 21 17 12 14 21 26 29 30 28 29 28 25 24 24 23 23 23 24 25 25 24 23 23 21 19
21 20 19 17 17 17 17 18 17 16 14 12 12 14 14 15 16 17 15 16 21 23 23 23 22 21 18 15 17 15 9 4 1 7 10 10 12 15 19 22 22 22 22 19 19 23 25 26 25 22 22 26 28 26 20 23 29 25 17 14 16 19 21 19 17 15 14 18 25 29 29 28 27 27 27 27 27 26 25 24 24 24 24 23 22 22 21 20
21 19 18 17 17 17 17 17 16 15 13 11 12 12 14 15 14 15 14 16 21 20 20 22 21 22 21 16 15 12 8 6 1 5 8 9 10 12 16 21 20 19 22 19 18 24 24 24 25 22 19 23 27 27 27 29 28 24 18 14 14 17 19 16 13 13 13 18 26 29 28 28 27 27 28 29 29 29 27 25 24 23 22 21 21 20 20 20
21 19 18 16 16 16 16 16 15 14 12 11 11 11 13 14 12 13 11 14 18 14 16 20 18 17 16 13 12 8 8 7 5 1 6 8 9 10 15 21 21 19 22 23 21 20 19 19 21 22 20 23 26 27 30 30 25 24 20 15 14 13 17 17 11 7 10 17 24 28 28 27 27 28 29 31 32 30 28 25 23 22 21 20 19 19 19 20
21 19 18 16 15 15 16 16 15 13 10 10 11 11 13 12 11 12 11 15 19 15 19 22 19 15 13 13 12 9 11 8 5 5 3 8 8 10 12 17 23 25 25 25 22 15 13 17 18 20 19 13 16 24 29 30 27 25 22 17 14 11 15 21 17 8 8 12 14 20 25 25 24 25 28 32 32 30 27 26 23 22 21 19 18 19 19 20
21 19 18 16 15 15 15 15 14 12 9 9 9 10 12 11 10 10 12 19 20 14 16 17 17 20 18 18 15 11 12 9 6 9 3 5 7 10 11 13 19 25 25 22 20 15 15 20 23 25 24 16 18 25 26 27 27 24 21 21 18 13 14 21 22 13 7 7 7 10 17 19 18 17 20 26 28 28 27 26 25 24 22 19 19 19 19 19
21 19 18 16 15 14 15 15 13 11 9 8 8 9 10 9 8 8 13 19 17 13 13 10 13 15 10 13 15 9 8 7 8 11 6 2 6 10 13 14 14 19 22 19 18 19 18 18 24 28 29 26 25 24 19 21 27 23 18 22 24 18 14 16 18 13 8 8 7 7 11 15 14 12 14 19 23 28 31 28 26 24 22 19 18 19 19 18
20 19 18 16 15 14 14 14 13 11 9 7 7 9 9 8 7 7 13 12 11 13 10 6 11 9 3 7 9 2 4 7 12 12 7 4 4 8 11 13 15 13 13 14 16 21 20 16 19 26 30 29 24 22 20 21 25 22 16 19 25 22 17 15 15 11 8 8 7 7 10 13 14 12 14 18 21 25 29 29 29 28 25 22 20 20 19 18
20 19 18 16 14 13 14 14 12 11 9 7 7 8 8 8 7 8 9 3 6 10 7 3 7 8 3 3 6 3 4 6 7 5 4 5 4 6 12 13 17 16 6 9 14 15 17 15 16 21 27 29 24 23 25 23 22 21 15 15 19 22 22 18 14 11 9 9 9 9 9 11 15 14 13 16 19 23 25 27 30 30 28 26 24 22 21 20
20 19 17 16 14 13 13 14 12 11 9 7 7 8 7 7 6 7 6 2 5 9 11 5 4 9 7 2 7 4 1 4 4 3 3 4 4 2 8 7 11 16 10 11 16 12 10 13 16 16 16 20 24 26 26 23 21 23 21 15 15 19 22 19 15 13 12 13 12 10 10 11 15 17 15 14 15 18 21 23 25 28 30 29 27 26 25 22
19 18 17 15 14 13 13 13 12 11 9 7 8 8 8 9 7 5 5 6 7 10 12 8 4 6 5 5 7 7 1 3 3 4 3 3 0 4 10 6 8 14 13 12 17 17 13 14 16 13 9 10 19 26 26 20 17 22 25 21 17 18 19 17 17 16 14 17 14 11 12 11 11 16 19 17 14 13 15 18 20 23 26 27 25 25 26 25
19 18 16 15 14 13 12 12 12 11 10 8 8 9 9 9 7 5 5 6 9 10 10 9 3 5 12 10 9 8 2 2 4 4 6 3 7 11 14 14 11 13 16 16 18 20 19 18 17 14 13 11 15 24 25 19 15 19 21 23 22 19 17 16 20 20 15 16 15 11 12 12 9 11 17 19 17 14 13 15 18 20 21 21 20 20 21 23
19 18 16 15 13 13 12 12 12 12 10 9 9 11 10 9 6 4 5 6 8 10 8 8 5 9 17 10 5 4 3 4 3 5 10 7 7 12 14 16 15 16 20 20 20 20 19 18 16 12 12 12 15 23 26 23 20 15 13 16 19 20 20 18 19 20 16 16 17 13 10 11 9 8 10 14 16 15 14 16 18 19 19 19 18 18 18 18
19 18 16 15 13 13 12 12 12 11 10 10 10 11 11 10 7 5 5 6 7 10 9 8 6 5 13 8 0 2 5 8 3 6 10 7 4 12 14 15 17 17 20 23 23 21 21 20 14 9 8 11 14 22 28 28 24 15 8 10 15 20 23 20 16 16 15 16 19 18 14 11 10 8 6 8 11 13 14 16 17 18 18 18 18 18 17 16
19 18 16 15 14 13 12 12 12 11 10 11 11 12 11 9 6 4 4 6 8 9 10 9 7 2 6 5 1 1 4 10 6 2 5 4 4 8 10 13 15 14 20 25 24 23 24 22 15 14 11 11 14 18 26 31 27 21 15 11 15 21 24 24 20 15 15 16 18 20 16 12 11 9 7 8 10 10 12 15 17 19 19 19 18 16 16 16
20 17 16 16 14 13 13 12 12 11 12 12 14 15 11 5 5 5 4 6 9 9 9 10 7 5 6 7 6 4 4 6 6 5 4 3 6 7 8 12 12 13 18 25 26 26 28 25 21 24 19 12 13 11 19 28 28 27 23 16 17 22 24 24 22 18 18 17 17 19 17 12 11 10 9 10 10 11 13 14 17 19 20 20 18 16 16 18
21 18 15 16 15 13 13 12 12 12 12 13 15 15 8 5 9 10 7 8 9 8 7 8 8 7 8 9 9 7 4 4 4 6 5 4 7 9 9 10 10 10 14 21 27 30 32 28 24 28 25 19 16 12 15 24 27 28 30 22 17 19 19 17 16 17 19 17 17 19 18 13 10 10 12 12 10 11 13 14 16 18 20 20 19 18 18 17
22 20 17 16 16 15 12 11 13 12 12 14 11 8 9 9 12 14 11 10 10 9 7 7 7 8 9 10 10 8 7 7 5 5 5 3 5 7 8 10 9 8 11 18 24 28 33 32 26 28 27 26 24 17 15 22 25 24 28 25 16 12 13 12 10 13 16 15 16 18 18 17 14 11 12 12 12 14 15 16 19 20 21 22 21 17 16 15
23 22 19 17 17 16 12 12 14 11 13 14 7 6 13 14 10 14 14 10 11 10 8 8 8 8 9 9 8 8 8 7 5 7 7 4 6 8 9 9 9 10 11 14 18 23 33 36 29 26 25 23 22 17 14 18 22 22 22 24 20 14 12 11 8 10 13 12 13 15 16 18 18 15 12 11 12 14 14 15 17 19 22 25 22 18 17 18
24 23 21 19 18 17 14 14 14 11 12 11 2 2 14 15 11 15 14 11 13 12 9 10 10 8 9 9 8 9 10 6 7 9 8 7 10 12 10 9 11 12 11 11 13 19 30 37 30 22 19 20 20 16 12 13 20 25 22 20 21 20 15 12 10 9 12 12 14 15 15 15 17 18 15 12 12 14 14 15 16 16 21 24 22 20 21 20
24 23 22 21 19 18 16 15 15 13 11 9 6 7 13 14 13 15 14 13 15 13 11 12 11 9 10 11 9 10 10 8 9 9 7 9 12 13 11 10 13 15 12 12 13 16 23 30 31 25 20 23 25 20 18 18 19 26 26 18 19 21 18 18 16 15 16 13 15 18 17 14 16 18 17 15 15 15 13 13 15 17 20 21 18 19 22 20
25 23 24 23 20 17 15 14 15 13 12 11 9 9 10 11 12 12 14 17 16 14 14 13 12 10 11 10 9 10 10 10 10 10 9 11 13 14 14 12 15 16 13 12 14 16 20 23 28 29 24 25 26 21 24 25 18 22 27 22 19 18 18 22 22 20 22 18 17 19 17 14 14 16 18 18 18 16 12 8 9 14 20 20 16 16 20 20
25 24 27 27 23 19 16 15 14 13 15 14 9 8 7 8 10 10 11 16 16 15 15 14 12 12 11 10 9 10 11 10 11 12 11 11 11 14 15 12 13 15 14 15 14 16 20 21 24 28 27 28 27 24 27 26 19 21 26 23 23 20 18 22 22 21 24 20 17 19 18 16 15 15 16 18 19 18 16 13 9 10 16 20 19 17 18 18
26 27 28 27 24 21 19 18 16 15 18 16 10 7 6 7 12 13 10 14 17 16 16 15 14 14 14 11 9 11 12 11 12 13 14 11 11 14 15 12 13 14 14 17 17 16 20 22 24 28 31 31 30 29 32 28 24 29 29 25 27 27 23 24 25 23 24 22 19 20 20 20 18 17 18 19 20 20 19 19 15 11 13 15 14 15 17 17
28 29 27 23 20 22 22 20 18 16 15 15 15 11 6 6 9 9 11 14 15 18 19 17 16 16 15 13 10 11 13 12 11 13 15 13 13 15 13 12 14 14 14 18 21 20 20 22 23 27 32 34 32 31 33 31 30 35 35 31 32 31 26 25 25 22 23 26 24 22 24 25 23 20 21 22 23 22 21 20 17 15 16 15 11 9 13 15
30 27 24 22 21 23 23 22 21 17 14 16 18 17 14 11 9 9 11 14 16 18 19 18 18 17 15 13 11 12 14 13 12 13 15 15 14 14 12 11 13 14 14 17 22 23 20 20 23 26 33 38 35 31 31 34 35 37 38 38 38 36 27 22 23 21 21 27 30 27 27 27 25 23 23 24 25 24 21 20 16 13 15 16 13 11 12 12
28 25 26 26 24 24 24 23 21 18 16 16 16 16 17 16 11 12 15 19 22 21 17 18 19 16 14 14 12 13 14 14 14 14 14 13 13 12 11 12 12 14 15 16 19 22 19 17 20 24 30 37 39 36 33 35 36 37 37 39 42 40 31 25 25 24 22 24 28 30 31 32 31 31 30 29 27 24 21 20 17 14 14 14 14 15 15 14
27 28 30 28 25 25 25 24 21 19 20 19 14 12 12 11 10 12 14 18 22 20 19 21 18 15 16 16 14 12 13 14 14 16 15 13 11 11 10 11 11 11 13 15 17 20 19 16 17 21 26 32 38 41 39 37 37 36 35 39 45 43 34 29 29 28 25 25 26 30 35 37 37 36 35 34 32 28 25 24 22 20 19 20 21 21 19 19
Wind_Direction
1 360 358 357 355 354 351 348 345 342 339 335 331 327 323 318 313 306 299 292 286 280 275 270 266 264 262 259 256 253 249 245 242 241 241 239 237 236 237 241 241 238 239 240 239 236 234 234 228 211 204 203 204 211 214 210 209 216 234 254 283 304 311 314 241 170 157 152 148 158 174 174 166 169 172 169 176 161 142 148 160 163 179 164 143 129 122 119
359 358 356 355 353 351 348 345 342 339 336 333 330 326 322 317 312 306 300 293 286 281 276 271 266 263 261 259 257 255 251 247 242 239 239 238 237 236 236 239 240 238 237 239 239 236 233 232 230 213 203 201 201 207 210 209 203 211 236 238 241 280 322 321 166 157 156 154 153 165 181 186 175 166 178 172 164 166 150 149 136 145 161 160 143 129 123 122
357 355 354 353 351 349 346 343 339 336 333 331 328 326 323 319 314 308 303 296 289 283 277 272 267 263 260 258 256 255 252 248 244 240 237 236 236 235 235 238 239 237 236 237 238 236 233 231 230 217 203 199 200 203 206 210 207 211 226 219 221 222 166 97 154 160 163 161 159 167 181 190 185 173 181 177 166 169 169 160 148 156 156 152 147 134 127 125
354 353 352 351 349 347 344 341 337 335 332 330 328 326 324 321 317 313 307 301 294 287 280 274 269 264 260 256 255 253 251 248 244 241 239 235 235 235 235 237 238 236 234 235 236 235 232 229 227 216 205 198 200 204 203 207 209 210 214 213 220 221 174 140 158 175 177 175 171 171 176 184 190 191 188 183 174 165 172 175 170 173 160 154 155 139 130 128
352 351 350 349 347 345 343 340 337 334 332 330 328 327 325 323 320 316 311 305 299 292 285 277 271 266 261 257 254 252 250 247 243 242 241 235 233 233 234 236 238 236 232 232 235 234 230 227 225 215 204 199 199 203 205 208 213 212 207 212 221 224 196 154 160 182 193 196 195 183 178 183 193 202 196 188 180 170 168 178 182 180 166 160 158 141 130 128
349 349 348 348 346 344 342 339 337 334 332 330 328 327 325 323 320 316 313 308 303 296 289 281 274 268 263 259 255 252 250 247 240 241 242 236 232 232 232 234 237 236 232 230 231 231 229 225 222 215 204 201 200 199 203 211 215 212 204 207 215 222 213 175 169 190 201 205 207 198 188 191 196 199 199 193 187 179 171 173 181 185 173 162 155 141 132 129
347 347 347 347 345 344 341 339 337 334 333 331 329 327 325 323 320 316 312 307 303 299 293 286 278 270 264 259 256 253 251 247 240 239 242 239 232 230 230 231 235 235 231 229 229 229 227 223 220 215 205 201 200 199 203 209 213 212 211 208 209 218 216 196 193 201 203 205 207 203 195 197 197 196 200 194 185 179 174 179 183 186 178 164 155 144 136 132
346 346 347 346 345 343 340 338 336 335 333 331 329 328 326 323 319 316 311 307 304 299 295 289 282 275 267 261 257 254 253 250 241 237 239 239 233 228 227 229 231 233 231 228 227 226 225 221 218 216 209 204 203 202 205 208 210 212 216 215 211 215 215 210 212 210 207 205 205 205 199 197 195 194 197 187 180 178 180 184 185 185 179 167 159 152 143 136
345 346 347 346 344 342 340 338 336 335 333 331 330 328 326 323 319 315 311 308 305 301 297 291 286 279 271 266 260 257 255 250 241 235 236 236 233 227 225 226 228 231 230 228 226 225 223 221 219 217 213 211 209 204 203 204 202 201 203 209 210 211 213 217 220 219 214 204 200 204 201 196 193 193 197 189 181 182 186 189 186 181 178 171 166 161 148 138
345 346 346 345 343 341 339 338 336 335 333 331 329 327 325 322 319 316 313 311 307 304 299 294 289 282 277 272 267 265 259 249 240 234 234 234 231 226 224 223 225 228 229 228 226 223 221 220 221 219 213 209 209 206 202 198 198 202 198 205 210 211 215 221 221 214 212 205 197 198 197 195 195 193 196 194 190 191 190 192 187 179 180 175 172 171 154 141
345 345 345 345 343 341 339 337 336 334 332 330 329 327 325 322 320 317 315 312 309 306 302 298 292 286 281 276 274 272 261 251 241 234 233 233 230 226 223 221 223 226 227 226 225 223 221 220 220 218 213 206 205 205 203 197 199 211 207 207 214 215 217 221 222 210 203 201 196 197 201 202 201 197 197 193 192 197 194 192 187 180 184 177 174 176 161 147
344 345 345 344 342 341 339 337 335 334 332 330 329 327 325 324 322 319 317 314 311 309 304 300 295 289 284 280 278 271 264 260 248 238 234 232 230 226 222 220 222 223 225 225 223 221 219 219 218 216 213 211 211 202 196 198 202 212 207 205 215 218 221 224 227 218 203 198 198 204 210 210 205 201 201 190 185 198 201 195 188 182 185 179 176 177 166 154
344 345 344 343 342 341 338 337 335 334 332 331 329 328 327 326 324 321 318 315 312 309 306 301 296 291 286 281 277 270 267 266 253 242 235 232 229 225 221 219 220 222 223 224 223 221 218 216 215 215 212 213 218 205 195 201 203 205 202 204 214 219 229 231 223 215 206 201 200 206 211 210 208 204 202 189 184 200 207 200 191 184 184 180 179 180 176 168
343 344 343 343 342 341 339 337 335 334 333 331 330 330 330 328 325 323 319 316 313 310 307 303 297 292 286 280 275 271 269 265 255 248 239 233 228 224 221 218 219 220 221 223 223 221 220 216 213 213 209 207 212 207 203 205 201 200 202 205 213 221 230 225 212 204 203 202 197 198 203 208 212 209 201 192 191 202 206 202 195 187 183 180 182 185 186 183
343 343 343 343 342 341 339 337 335 335 333 332 333 333 332 331 329 328 326 323 318 314 310 305 300 294 286 279 274 271 270 267 258 250 242 234 228 223 220 217 217 219 219 221 222 222 220 217 214 210 205 204 204 206 209 209 202 201 204 207 212 222 229 219 208 201 200 204 199 195 200 206 209 204 197 196 201 205 201 200 198 191 185 181 184 189 192 193
342 342 342 342 342 342 339 338 337 335 334 334 335 336 336 335 335 336 335 332 327 322 316 309 304 298 290 284 279 275 271 268 259 250 243 235 227 222 219 217 217 217 218 219 221 222 219 216 215 209 205 204 203 206 209 207 202 199 201 209 211 215 226 225 214 206 204 206 204 201 205 205 202 200 200 202 209 208 199 197 198 194 189 185 185 189 195 196
341 341 341 342 342 342 340 339 337 336 335 336 338 339 339 339 338 337 336 335 332 327 320 313 309 302 295 291 285 276 268 264 257 249 244 236 227 221 218 216 216 216 216 216 218 219 217 214 212 209 207 204 204 208 209 205 199 199 201 206 210 209 214 225 217 211 211 207 203 202 203 203 204 206 208 206 208 208 198 195 198 196 191 189 188 188 194 200
340 340 341 342 342 342 342 340 338 337 336 339 342 341 340 338 336 337 337 336 333 328 322 316 312 307 304 301 287 275 264 259 255 247 243 238 228 220 217 216 216 216 215 214 216 217 216 213 209 206 205 202 204 209 211 207 199 201 204 203 207 208 206 219 221 214 213 209 207 204 203 207 211 211 208 205 206 206 196 193 199 200 195 193 193 189 192 203
339 339 340 342 342 343 343 341 340 338 338 341 342 340 339 337 337 338 336 333 330 327 324 320 316 313 311 308 290 274 265 257 252 245 241 237 227 219 216 215 215 215 215 213 214 215 215 214 210 207 204 200 201 206 213 212 205 204 206 205 207 209 212 221 220 213 209 209 211 209 208 211 212 208 204 202 205 204 195 192 198 202 200 196 196 192 191 200
338 339 340 341 343 344 344 343 341 340 341 341 340 338 336 336 338 336 331 331 332 334 335 331 324 320 319 320 306 280 267 258 250 243 238 233 225 218 215 214 214 214 213 211 212 213 214 214 211 208 204 200 199 203 212 213 208 208 209 208 208 214 222 218 211 212 212 210 212 216 217 211 205 200 195 198 205 205 198 193 197 203 203 200 197 194 191 195
338 338 339 341 343 345 345 344 342 342 341 340 339 337 334 336 337 334 336 338 343 349 342 336 330 325 328 330 321 299 275 259 248 241 236 230 222 216 214 212 213 213 211 210 210 211 213 213 211 207 203 199 197 199 210 214 209 211 217 213 209 219 225 217 212 216 218 214 213 222 222 211 202 197 192 196 202 202 198 195 197 203 205 203 200 195 191 193
337 337 338 340 343 344 345 344 343 343 342 340 339 335 334 338 336 339 346 344 356 356 340 345 352 343 340 337 330 317 289 262 247 238 231 228 220 214 212 210 211 211 210 208 209 211 212 212 210 205 200 197 197 196 204 217 211 209 223 221 216 224 223 218 221 224 222 216 213 218 215 204 198 198 198 199 200 199 198 196 195 201 204 204 203 199 192 191
336 336 337 340 342 344 344 344 344 343 341 339 338 335 335 337 338 345 350 349 1 355 351 7 8 355 347 341 338 327 299 264 242 232 226 225 218 214 211 207 207 209 209 208 210 211 210 211 210 205 200 195 195 197 198 219 215 206 217 224 224 227 222 220 231 240 227 213 212 211 202 194 192 195 200 201 201 203 203 201 198 199 202 201 203 204 195 190
335 335 336 339 342 343 344 344 344 344 340 337 337 336 335 337 341 348 352 355 355 357 13 18 5 358 349 342 345 337 312 261 230 221 220 221 215 210 208 207 205 205 207 207 209 211 208 209 207 206 204 195 193 195 194 215 218 208 213 222 224 226 223 225 232 244 231 214 212 207 195 192 193 195 199 201 202 205 204 203 202 202 204 202 202 205 200 194
334 334 335 338 341 342 343 344 344 343 339 335 337 336 334 339 346 350 353 356 348 353 16 13 357 0 356 349 351 342 326 283 226 208 209 213 212 208 203 205 205 203 204 207 211 212 208 204 199 202 207 199 194 192 193 222 220 209 215 224 225 225 223 227 233 242 239 221 209 201 194 194 197 196 196 199 204 206 202 201 203 205 207 207 205 205 204 200
334 333 334 337 339 340 342 343 343 343 339 337 335 331 334 345 353 355 356 357 353 356 5 2 353 355 354 351 349 347 353 5 202 196 204 203 208 213 204 198 198 197 194 198 212 212 207 203 192 191 204 205 199 191 194 222 220 211 218 227 227 226 222 230 243 244 241 221 201 194 195 196 199 200 195 197 202 204 203 200 202 207 208 208 209 207 205 204
334 332 334 336 338 340 340 341 342 343 340 334 331 330 340 351 356 359 360 357 359 359 355 355 351 344 346 348 341 349 6 358 4 180 197 195 197 208 203 188 180 187 191 191 208 212 208 205 193 183 193 204 202 200 205 214 214 212 220 227 229 231 226 227 237 233 224 210 197 192 197 201 204 203 200 200 201 201 204 201 200 206 206 204 208 211 208 207
334 332 334 335 337 340 338 340 341 342 340 331 330 334 343 351 355 3 2 353 2 2 346 356 359 340 342 349 331 342 17 6 3 75 176 182 191 201 206 193 175 178 192 195 201 207 209 208 202 195 193 197 200 207 215 212 208 212 217 221 223 229 227 217 217 225 211 202 198 196 201 207 212 212 207 206 203 201 204 204 203 206 204 199 201 208 210 210
335 332 333 333 336 339 337 339 339 340 338 328 330 334 340 351 359 2 352 349 1 5 354 360 7 359 357 3 4 14 11 358 359 7 164 173 184 197 209 208 195 186 189 198 197 185 186 193 193 188 180 185 211 221 222 215 211 216 218 215 212 215 218 214 217 228 204 194 195 200 205 209 217 222 218 213 209 203 203 205 207 207 204 197 196 201 206 211
336 333 333 331 335 337 336 339 337 337 334 325 328 328 335 351 357 351 353 357 359 3 4 357 6 20 9 358 19 31 357 345 20 14 354 190 192 191 188 200 207 199 192 198 194 174 178 197 198 186 169 171 211 221 223 218 212 217 220 212 206 204 206 213 219 224 208 186 172 184 197 202 208 217 217 214 211 205 204 205 207 208 206 201 199 201 203 207
336 334 332 330 334 336 336 337 335 334 329 323 322 317 332 347 341 353 14 11 355 353 7 338 341 17 16 357 9 14 350 334 342 355 359 157 186 192 188 191 197 200 199 193 186 182 185 205 213 198 179 180 197 202 208 215 213 216 222 214 208 202 195 202 210 213 212 198 178 177 193 196 198 201 200 199 199 200 203 204 205 208 210 207 205 206 206 206
337 334 331 330 333 334 336 335 331 332 325 318 313 308 329 328 304 359 25 14 337 340 355 303 309 335 75 51 10 7 64 344 323 337 359 63 145 169 175 183 163 163 200 191 179 189 188 194 212 203 190 189 191 186 189 205 213 215 215 210 210 209 201 197 197 197 205 209 206 210 205 196 195 195 194 194 193 196 201 203 205 206 207 208 209 210 210 209
336 335 331 329 331 333 337 334 330 330 321 313 305 299 320 314 302 360 20 347 305 335 345 290 316 336 51 69 296 243 78 340 319 337 346 58 83 147 156 173 154 140 187 191 170 192 202 203 215 211 202 201 198 191 191 199 211 213 208 202 209 217 217 211 206 207 216 224 227 226 216 199 196 195 189 192 197 198 198 201 204 205 203 203 207 210 211 213
336 336 332 329 330 332 336 333 328 327 319 309 298 291 304 304 308 352 3 309 298 328 333 321 24 24 28 1 285 281 135 253 224 213 244 83 48 123 141 171 162 150 178 183 164 178 208 220 228 224 213 205 206 208 202 199 211 220 219 212 207 217 224 224 226 234 236 232 231 233 229 210 202 203 195 190 196 201 201 200 201 202 202 203 205 209 212 213
337 336 333 329 327 330 334 331 326 324 317 303 288 283 289 290 298 328 342 336 326 326 327 323 51 38 331 265 281 304 295 230 230 199 167 93 186 152 139 184 193 169 184 184 170 174 183 207 228 236 234 204 202 213 211 202 216 227 223 218 214 216 224 227 229 236 239 231 232 243 241 225 211 209 207 202 192 194 203 201 197 196 200 206 210 213 215 214
336 336 333 328 326 327 329 327 324 323 316 300 283 278 281 286 299 324 330 325 324 329 325 323 349 228 252 271 296 307 321 255 275 193 168 185 211 188 168 181 187 181 193 190 179 178 179 192 211 226 238 224 198 206 208 194 207 231 226 223 226 226 230 232 227 230 236 229 229 245 246 235 223 202 201 206 199 193 201 201 196 192 191 197 203 207 212 214
335 336 334 328 325 323 323 322 323 324 316 297 282 279 281 284 285 296 322 316 312 322 319 329 354 215 235 270 301 312 333 291 284 178 208 239 223 205 181 174 188 195 195 188 179 178 176 178 192 208 227 229 201 198 202 192 193 217 228 225 227 227 232 236 229 232 239 230 225 235 243 237 228 195 182 197 198 193 196 196 195 195 193 195 198 199 200 205
335 337 334 328 323 318 319 318 318 324 314 296 287 285 289 299 287 261 293 310 306 317 316 326 356 224 233 257 271 49 335 292 264 176 228 266 227 203 184 183 206 206 194 186 179 179 173 171 180 181 196 225 207 195 203 205 196 184 184 209 213 217 228 233 228 232 239 234 228 232 242 247 234 209 180 183 189 194 195 193 195 199 202 204 203 203 202 199
335 337 332 326 319 313 314 312 315 320 304 292 289 282 282 298 307 271 277 303 305 311 313 322 349 319 251 267 229 90 299 277 276 253 253 276 245 216 198 203 214 203 190 183 179 178 172 171 170 148 159 220 223 199 204 212 206 186 181 196 200 209 223 228 227 231 236 237 235 233 239 247 233 211 193 189 191 192 188 186 192 197 201 204 203 202 200 200
332 334 329 323 316 310 309 308 311 308 299 299 294 284 279 279 292 293 275 284 294 297 310 325 332 317 305 302 286 279 281 276 287 295 273 225 227 220 209 219 217 206 197 186 185 182 172 172 166 146 150 201 230 219 205 210 209 196 194 199 199 208 219 224 225 230 234 236 236 236 238 240 229 212 203 203 197 187 182 186 196 201 204 205 204 201 199 202
326 329 326 319 314 309 307 305 303 300 301 303 295 290 299 291 277 283 276 271 283 285 296 311 307 307 324 321 309 309 287 262 274 276 263 244 246 237 227 233 229 222 209 193 190 182 174 180 173 151 152 173 196 211 203 204 205 202 204 205 203 211 215 215 223 229 234 239 239 238 240 239 230 214 209 209 199 186 190 204 214 217 218 214 209 208 208 211
321 324 325 319 314 311 306 297 293 295 295 294 301 312 305 283 266 270 270 267 271 269 272 290 303 319 328 316 306 304 279 264 268 258 245 251 273 260 241 235 229 221 209 202 202 189 182 190 182 165 169 177 183 190 191 191 192 199 211 208 196 211 216 205 219 233 235 242 243 240 240 234 221 208 208 206 194 190 200 218 220 215 219 221 215 208 204 207
317 320 323 318 314 312 304 290 287 289 291 297 337 354 293 276 256 260 264 264 268 268 268 280 296 310 318 318 310 300 290 278 265 262 261 257 267 266 249 238 234 220 204 209 214 201 194 196 188 177 185 190 189 189 185 188 185 188 211 216 199 198 211 197 196 229 242 258 260 251 248 237 220 211 216 212 207 208 212 217 213 211 217 216 209 200 196 200
312 315 318 315 316 312 299 287 282 279 287 296 333 279 277 272 255 257 260 260 266 272 272 275 287 301 308 321 321 304 304 293 256 259 269 265 269 273 264 251 250 241 226 221 218 205 203 203 196 183 178 180 185 183 178 197 196 184 195 217 203 192 203 200 193 228 249 269 272 258 254 244 222 215 217 211 212 220 217 211 217 234 235 219 203 196 197 200
308 310 310 309 310 306 295 283 280 279 280 278 255 256 275 276 264 256 256 256 255 261 269 269 274 288 296 309 318 309 310 305 280 272 263 253 264 274 272 263 257 251 241 228 218 207 208 209 205 199 180 169 175 177 176 190 199 188 186 195 196 199 213 210 209 229 236 246 264 262 259 247 222 214 214 209 207 214 220 220 227 238 233 220 211 203 198 200
304 304 302 301 302 305 301 286 282 281 272 267 272 277 274 271 267 253 247 253 252 248 256 263 267 275 281 292 306 306 308 310 303 297 276 262 269 278 279 277 266 256 245 233 222 209 209 210 210 211 199 181 182 183 180 184 192 191 186 181 185 203 218 211 210 220 218 223 250 259 257 246 227 215 212 213 213 215 221 226 233 235 223 215 216 210 202 200
299 296 296 302 306 308 303 291 286 278 270 272 275 270 254 252 277 286 260 253 254 247 246 253 261 267 272 279 292 299 306 314 315 315 304 283 273 272 275 279 274 261 245 237 231 218 212 207 206 209 202 190 189 185 182 187 187 181 179 180 184 193 214 226 227 219 209 214 240 251 254 253 240 221 210 214 219 222 224 217 216 232 223 211 210 214 214 205
292 289 295 305 309 303 296 292 287 271 269 272 259 259 298 292 289 305 291 257 248 241 239 241 245 251 261 272 284 292 299 311 316 319 320 300 261 254 263 270 271 265 251 241 234 223 217 210 205 204 198 191 189 186 187 187 177 172 175 185 190 187 196 218 228 221 211 216 231 241 248 253 244 222 210 215 220 225 232 230 227 234 229 219 212 215 222 216
285 289 298 304 299 293 290 288 283 270 263 258 244 244 286 294 268 269 282 278 260 242 235 237 242 248 255 263 275 284 289 301 311 314 318 305 269 252 253 257 262 266 260 249 242 231 222 215 210 203 197 194 191 189 190 184 176 177 178 181 191 193 192 205 220 222 219 222 226 229 232 238 239 224 214 218 221 225 235 240 241 242 237 237 238 229 233 233
288 292 294 289 283 284 285 283 282 279 262 249 252 251 248 258 252 225 244 271 267 252 240 232 237 245 251 259 267 275 283 294 304 310 315 306 279 256 244 244 253 258 256 253 251 243 230 220 216 206 198 196 195 194 194 190 187 187 182 180 188 193 190 197 212 215 216 219 221 221 223 230 236 231 224 225 226 229 236 242 248 251 245 247 252 248 250 252
288 284 278 276 277 278 281 281 279 276 264 257 267 263 255 268 262 215 219 242 251 255 250 235 237 243 246 254 259 267 282 293 298 305 314 306 278 255 242 239 242 248 252 252 250 246 237 225 220 213 204 201 202 204 202 198 196 196 191 187 188 188 187 194 204 208 211 214 218 222 224 228 234 236 233 232 232 235 239 243 250 257 259 261 260 256 258 257
280 274 272 274 276 275 276 277 272 264 261 264 265 250 250 272 258 216 225 250 257 261 250 237 238 241 240 248 257 267 282 292 296 304 315 310 275 246 237 236 236 243 251 251 246 242 239 232 224 217 210 207 208 210 208 204 203 201 195 189 187 187 188 193 202 209 211 212 219 226 227 228 232 236 236 236 239 242 243 248 254 259 264 267 265 261 256 250